M I D A S
Marine Information and Data Acquisition System
Tripno 1423 of the Zeeleeuw from 2008-02-11 09:12:56 to 2008-02-11 16:50:57
Back to CruiseResearch ActivitiesStationsMapUnderway DataData graphs

EquipmentUnitsComments
TimeDGPSUTC
LatitudeDGPSDM.mWGS84
LongitudeDGPSDM.mWGS84
SpeedMeteo Stationm/sRelative wind speed
DirectionMeteo StationdegRelative wind direction
TemperatureMeteo Stationdeg CelciusAir temperature
PressureMeteo StationPaAtmospheric pressure
HumidityMeteo Station%Relative humidity
Missing or incorrect values are displayed as -999
Metereological data collected by the RV Zeeleeuw from 2008-02-11 09:13:46 to 2008-02-11 20:30:56
                                                                                    Next 1000 lines
Time Latitude Longitude Speed Direction Temperature Pressure Humidity
2008-02-11 09:13:55 51°13.663 2°55.953 -999 -999 -999 -999 -999
2008-02-11 09:14:00 51°13.664 2°55.951 -999 -999 -999 -999 -999
2008-02-11 09:14:06 51°13.664 2°55.949 -999 -999 -999 -999 -999
2008-02-11 09:14:11 51°13.665 2°55.946 -999 -999 -999 -999 -999
2008-02-11 09:14:16 51°13.666 2°55.944 -999 -999 -999 -999 -999
2008-02-11 09:14:20 51°13.667 2°55.941 -999 -999 -999 -999 -999
2008-02-11 09:14:25 51°13.668 2°55.937 -999 -999 -999 -999 -999
2008-02-11 09:14:31 51°13.67 2°55.933 -999 -999 -999 -999 -999
2008-02-11 09:14:36 51°13.671 2°55.929 -999 -999 -999 -999 -999
2008-02-11 09:14:41 51°13.673 2°55.925 -999 -999 -999 -999 -999
2008-02-11 09:14:46 51°13.674 2°55.92 -999 -999 -999 -999 -999
2008-02-11 09:14:50 51°13.675 2°55.916 -999 -999 -999 -999 -999
2008-02-11 09:14:56 51°13.678 2°55.911 -999 -999 -999 -999 -999
2008-02-11 09:15:01 51°13.679 2°55.905 -999 -999 -999 -999 -999
2008-02-11 09:15:06 51°13.681 2°55.901 -999 -999 -999 -999 -999
2008-02-11 09:15:11 51°13.683 2°55.895 -999 -999 -999 -999 -999
2008-02-11 09:15:16 51°13.684 2°55.89 -999 -999 -999 -999 -999
2008-02-11 09:15:21 51°13.685 2°55.885 -999 -999 -999 -999 -999
2008-02-11 09:15:26 51°13.686 2°55.88 -999 -999 -999 -999 -999
2008-02-11 09:15:31 51°13.687 2°55.874 -999 -999 -999 -999 -999
2008-02-11 09:15:35 51°13.688 2°55.87 -999 -999 -999 -999 -999
2008-02-11 09:15:41 51°13.689 2°55.863 -999 -999 -999 -999 -999
2008-02-11 09:15:46 51°13.69 2°55.858 -999 -999 -999 -999 -999
2008-02-11 09:15:51 51°13.691 2°55.852 -999 -999 -999 -999 -999
2008-02-11 09:15:55 51°13.691 2°55.848 -999 -999 -999 -999 -999
2008-02-11 09:16:00 51°13.692 2°55.842 -999 -999 -999 -999 -999
2008-02-11 09:16:06 51°13.693 2°55.836 -999 -999 -999 -999 -999
2008-02-11 09:16:11 51°13.694 2°55.83 -999 -999 -999 -999 -999
2008-02-11 09:16:15 51°13.694 2°55.826 -999 -999 -999 -999 -999
2008-02-11 09:16:20 51°13.695 2°55.82 -999 -999 -999 -999 -999
2008-02-11 09:16:25 51°13.696 2°55.815 -999 -999 -999 -999 -999
2008-02-11 09:16:31 51°13.696 2°55.808 -999 -999 -999 -999 -999
2008-02-11 09:16:36 51°13.697 2°55.803 -999 -999 -999 -999 -999
2008-02-11 09:16:40 51°13.697 2°55.799 -999 -999 -999 -999 -999
2008-02-11 09:16:45 51°13.697 2°55.795 -999 -999 -999 -999 -999
2008-02-11 09:16:51 51°13.698 2°55.789 -999 -999 -999 -999 -999
2008-02-11 09:16:55 51°13.698 2°55.785 -999 -999 -999 -999 -999
2008-02-11 09:17:01 51°13.698 2°55.78 -999 -999 -999 -999 -999
2008-02-11 09:17:05 51°13.698 2°55.777 -999 -999 -999 -999 -999
2008-02-11 09:17:10 51°13.698 2°55.773 -999 -999 -999 -999 -999
2008-02-11 09:17:16 51°13.699 2°55.768 -999 -999 -999 -999 -999
2008-02-11 09:17:21 51°13.699 2°55.764 -999 -999 -999 -999 -999
2008-02-11 09:17:26 51°13.699 2°55.761 -999 -999 -999 -999 -999
2008-02-11 09:17:30 51°13.699 2°55.759 -999 -999 -999 -999 -999
2008-02-11 09:17:35 51°13.699 2°55.758 -999 -999 -999 -999 -999
2008-02-11 09:17:41 51°13.7 2°55.756 -999 -999 -999 -999 -999
2008-02-11 09:17:46 51°13.701 2°55.755 -999 -999 -999 -999 -999
2008-02-11 09:17:51 51°13.701 2°55.755 -999 -999 -999 -999 -999
2008-02-11 09:17:55 51°13.702 2°55.756 -999 -999 -999 -999 -999
2008-02-11 09:18:01 51°13.703 2°55.756 -999 -999 -999 -999 -999
2008-02-11 09:18:06 51°13.703 2°55.756 -999 -999 -999 -999 -999
2008-02-11 09:18:11 51°13.704 2°55.756 -999 -999 -999 -999 -999
2008-02-11 09:18:16 51°13.704 2°55.755 -999 -999 -999 -999 -999
2008-02-11 09:18:20 51°13.704 2°55.754 -999 -999 -999 -999 -999
2008-02-11 09:18:26 51°13.703 2°55.752 -999 -999 -999 -999 -999
2008-02-11 09:18:31 51°13.703 2°55.75 -999 -999 -999 -999 -999
2008-02-11 09:18:36 51°13.702 2°55.748 -999 -999 -999 -999 -999
2008-02-11 09:18:40 51°13.701 2°55.746 -999 -999 -999 -999 -999
2008-02-11 09:18:45 51°13.701 2°55.744 -999 -999 -999 -999 -999
2008-02-11 09:18:51 51°13.699 2°55.742 -999 -999 -999 -999 -999
2008-02-11 09:18:56 51°13.699 2°55.741 -999 -999 -999 -999 -999
2008-02-11 09:19:00 51°13.698 2°55.74 -999 -999 -999 -999 -999
2008-02-11 09:19:05 51°13.699 2°55.74 -999 -999 -999 -999 -999
2008-02-11 09:19:08 51°13.7 2°55.739 -999 -999 -999 -999 -999
2008-02-11 09:19:08 51°13.7 2°55.739 -999 -999 -999 -999 -999
2008-02-11 09:19:08 51°13.7 2°55.739 -999 -999 -999 -999 -999
2008-02-11 09:19:08 51°13.7 2°55.739 -999 -999 -999 -999 -999
2008-02-11 09:19:08 51°13.7 2°55.739 -999 -999 -999 -999 -999
2008-02-11 09:19:08 51°13.7 2°55.739 -999 -999 -999 -999 -999
2008-02-11 09:19:08 51°13.7 2°55.739 -999 -999 -999 -999 -999
2008-02-11 09:19:08 51°13.7 2°55.739 -999 -999 -999 -999 -999
2008-02-11 09:19:08 51°13.7 2°55.739 -999 -999 -999 -999 -999
2008-02-11 09:19:08 51°13.7 2°55.739 -999 -999 -999 -999 -999
2008-02-11 09:19:08 51°13.7 2°55.739 -999 -999 -999 -999 -999
2008-02-11 09:19:08 51°13.7 2°55.739 -999 -999 -999 -999 -999
2008-02-11 09:20:11 51°13.7 2°55.739 -999 -999 -999 -999 -999
2008-02-11 09:20:14 51°13.7 2°55.739 -999 -999 -999 -999 -999
2008-02-11 09:20:20 51°13.7 2°55.739 -999 -999 -999 -999 -999
2008-02-11 09:20:25 51°13.773 2°55.693 -999 -999 -999 -999 -999
2008-02-11 09:20:31 51°13.784 2°55.685 -999 -999 -999 -999 -999
2008-02-11 09:20:35 51°13.791 2°55.68 -999 -999 -999 -999 -999
2008-02-11 09:20:40 51°13.795 2°55.673 -999 -999 -999 -999 -999
2008-02-11 09:20:46 51°13.803 2°55.664 -999 -999 -999 -999 -999
2008-02-11 09:20:51 51°13.806 2°55.657 -999 -999 -999 -999 -999
2008-02-11 09:20:55 51°13.811 2°55.653 -999 -999 -999 -999 -999
2008-02-11 09:21:00 51°13.818 2°55.647 -999 -999 -999 -999 -999
2008-02-11 09:21:05 51°13.826 2°55.642 -999 -999 -999 -999 -999
2008-02-11 09:21:11 51°13.836 2°55.637 -999 -999 -999 -999 -999
2008-02-11 09:21:15 51°13.842 2°55.633 -999 -999 -999 -999 -999
2008-02-11 09:21:20 51°13.849 2°55.629 -999 -999 -999 -999 -999
2008-02-11 09:21:25 51°13.856 2°55.624 -999 -999 -999 -999 -999
2008-02-11 09:21:30 51°13.863 2°55.619 -999 -999 -999 -999 -999
2008-02-11 09:21:35 51°13.87 2°55.614 -999 -999 -999 -999 -999
2008-02-11 09:21:40 51°13.876 2°55.609 -999 -999 -999 -999 -999
2008-02-11 09:21:45 51°13.883 2°55.605 -999 -999 -999 -999 -999
2008-02-11 09:21:50 51°13.889 2°55.599 -999 -999 -999 -999 -999
2008-02-11 09:21:55 51°13.896 2°55.595 -999 -999 -999 -999 -999
2008-02-11 09:22:00 51°13.902 2°55.589 -999 -999 -999 -999 -999
2008-02-11 09:22:06 51°13.91 2°55.583 -999 -999 -999 -999 -999
2008-02-11 09:22:10 51°13.915 2°55.579 -999 -999 -999 -999 -999
2008-02-11 09:22:15 51°13.922 2°55.574 -999 -999 -999 -999 -999
2008-02-11 09:22:21 51°13.93 2°55.568 -999 -999 -999 -999 -999
2008-02-11 09:22:26 51°13.937 2°55.563 -999 -999 -999 -999 -999
2008-02-11 09:22:31 51°13.943 2°55.558 -999 -999 -999 -999 -999
2008-02-11 09:22:35 51°13.949 2°55.554 -999 -999 -999 -999 -999
2008-02-11 09:22:40 51°13.956 2°55.55 -999 -999 -999 -999 -999
2008-02-11 09:22:46 51°13.965 2°55.544 -999 -999 -999 -999 -999
2008-02-11 09:22:50 51°13.97 2°55.54 -999 -999 -999 -999 -999
2008-02-11 09:22:55 51°13.977 2°55.535 -999 -999 -999 -999 -999
2008-02-11 09:23:00 51°13.985 2°55.53 -999 -999 -999 -999 -999
2008-02-11 09:23:06 51°13.993 2°55.524 -999 -999 -999 -999 -999
2008-02-11 09:23:11 51°14 2°55.519 -999 -999 -999 -999 -999
2008-02-11 09:23:15 51°14.006 2°55.515 -999 -999 -999 -999 -999
2008-02-11 09:23:20 51°14.013 2°55.51 -999 -999 -999 -999 -999
2008-02-11 09:23:25 51°14.02 2°55.506 -999 -999 -999 -999 -999
2008-02-11 09:23:31 51°14.029 2°55.5 -999 -999 -999 -999 -999
2008-02-11 09:23:36 51°14.036 2°55.494 -999 -999 -999 -999 -999
2008-02-11 09:23:40 51°14.042 2°55.49 -999 -999 -999 -999 -999
2008-02-11 09:23:45 51°14.049 2°55.485 -999 -999 -999 -999 -999
2008-02-11 09:23:50 51°14.055 2°55.479 -999 -999 -999 -999 -999
2008-02-11 09:23:55 51°14.062 2°55.474 -999 -999 -999 -999 -999
2008-02-11 09:24:00 51°14.069 2°55.469 -999 -999 -999 -999 -999
2008-02-11 09:24:06 51°14.078 2°55.462 -999 -999 -999 -999 -999
2008-02-11 09:24:11 51°14.085 2°55.457 -999 -999 -999 -999 -999
2008-02-11 09:24:16 51°14.092 2°55.451 -999 -999 -999 -999 -999
2008-02-11 09:24:21 51°14.099 2°55.446 -999 -999 -999 -999 -999
2008-02-11 09:24:26 51°14.106 2°55.44 -999 -999 -999 -999 -999
2008-02-11 09:24:31 51°14.114 2°55.434 -999 -999 -999 -999 -999
2008-02-11 09:24:35 51°14.119 2°55.428 -999 -999 -999 -999 -999
2008-02-11 09:24:41 51°14.128 2°55.421 -999 -999 -999 -999 -999
2008-02-11 09:24:46 51°14.136 2°55.414 -999 -999 -999 -999 -999
2008-02-11 09:24:51 51°14.143 2°55.407 -999 -999 -999 -999 -999
2008-02-11 09:24:55 51°14.149 2°55.401 -999 -999 -999 -999 -999
2008-02-11 09:25:01 51°14.158 2°55.392 -999 -999 -999 -999 -999
2008-02-11 09:25:06 51°14.166 2°55.385 -999 -999 -999 -999 -999
2008-02-11 09:25:11 51°14.173 2°55.377 -999 -999 -999 -999 -999
2008-02-11 09:25:15 51°14.179 2°55.37 -999 -999 -999 -999 -999
2008-02-11 09:25:20 51°14.186 2°55.362 -999 -999 -999 -999 -999
2008-02-11 09:25:25 51°14.193 2°55.354 -999 -999 -999 -999 -999
2008-02-11 09:25:31 51°14.202 2°55.343 -999 -999 -999 -999 -999
2008-02-11 09:25:36 51°14.208 2°55.334 -999 -999 -999 -999 -999
2008-02-11 09:25:41 51°14.216 2°55.325 -999 -999 -999 -999 -999
2008-02-11 09:25:45 51°14.221 2°55.318 -999 -999 -999 -999 -999
2008-02-11 09:25:51 51°14.229 2°55.306 -999 -999 -999 -999 -999
2008-02-11 09:25:55 51°14.234 2°55.298 -999 -999 -999 -999 -999
2008-02-11 09:26:00 51°14.24 2°55.288 -999 -999 -999 -999 -999
2008-02-11 09:26:05 51°14.247 2°55.277 -999 -999 -999 -999 -999
2008-02-11 09:26:10 51°14.253 2°55.267 -999 -999 -999 -999 -999
2008-02-11 09:26:15 51°14.259 2°55.256 -999 -999 -999 -999 -999
2008-02-11 09:26:20 51°14.265 2°55.246 -999 -999 -999 -999 -999
2008-02-11 09:26:26 51°14.272 2°55.232 -999 -999 -999 -999 -999
2008-02-11 09:26:30 51°14.277 2°55.224 -999 -999 -999 -999 -999
2008-02-11 09:26:35 51°14.283 2°55.213 -999 -999 -999 -999 -999
2008-02-11 09:26:40 51°14.289 2°55.202 -999 -999 -999 -999 -999
2008-02-11 09:26:46 51°14.296 2°55.188 -999 -999 -999 -999 -999
2008-02-11 09:26:50 51°14.3 2°55.179 -999 -999 -999 -999 -999
2008-02-11 09:26:55 51°14.306 2°55.168 -999 -999 -999 -999 -999
2008-02-11 09:27:00 51°14.312 2°55.156 -999 -999 -999 -999 -999
2008-02-11 09:27:05 51°14.318 2°55.144 -999 -999 -999 -999 -999
2008-02-11 09:27:10 51°14.324 2°55.132 -999 -999 -999 -999 -999
2008-02-11 09:27:15 51°14.331 2°55.119 -999 -999 -999 -999 -999
2008-02-11 09:27:20 51°14.337 2°55.106 -999 -999 -999 -999 -999
2008-02-11 09:27:26 51°14.345 2°55.089 -999 -999 -999 -999 -999
2008-02-11 09:27:31 51°14.352 2°55.074 -999 -999 -999 -999 -999
2008-02-11 09:27:35 51°14.357 2°55.062 -999 -999 -999 -999 -999
2008-02-11 09:27:40 51°14.364 2°55.045 -999 -999 -999 -999 -999
2008-02-11 09:27:46 51°14.371 2°55.024 -999 -999 -999 -999 -999
2008-02-11 09:27:51 51°14.377 2°55.006 -999 -999 -999 -999 -999
2008-02-11 09:27:55 51°14.382 2°54.99 -999 -999 -999 -999 -999
2008-02-11 09:28:00 51°14.387 2°54.971 -999 -999 -999 -999 -999
2008-02-11 09:28:05 51°14.391 2°54.95 -999 -999 -999 -999 -999
2008-02-11 09:28:11 51°14.396 2°54.925 -999 -999 -999 -999 -999
2008-02-11 09:28:15 51°14.399 2°54.907 -999 -999 -999 -999 -999
2008-02-11 09:28:20 51°14.403 2°54.885 -999 -999 -999 -999 -999
2008-02-11 09:28:25 51°14.406 2°54.863 -999 -999 -999 -999 -999
2008-02-11 09:28:30 51°14.409 2°54.84 -999 -999 -999 -999 -999
2008-02-11 09:28:35 51°14.412 2°54.817 -999 -999 -999 -999 -999
2008-02-11 09:28:40 51°14.414 2°54.793 -999 -999 -999 -999 -999
2008-02-11 09:28:45 51°14.416 2°54.769 -999 -999 -999 -999 -999
2008-02-11 09:28:50 51°14.418 2°54.745 -999 -999 -999 -999 -999
2008-02-11 09:28:55 51°14.419 2°54.721 -999 -999 -999 -999 -999
2008-02-11 09:29:00 51°14.42 2°54.697 -999 -999 -999 -999 -999
2008-02-11 09:29:05 51°14.42 2°54.672 -999 -999 -999 -999 -999
2008-02-11 09:29:10 51°14.421 2°54.647 -999 -999 -999 -999 -999
2008-02-11 09:29:15 51°14.42 2°54.622 -999 -999 -999 -999 -999
2008-02-11 09:29:20 51°14.42 2°54.597 -999 -999 -999 -999 -999
2008-02-11 09:29:26 51°14.419 2°54.567 -999 -999 -999 -999 -999
2008-02-11 09:29:31 51°14.417 2°54.541 -999 -999 -999 -999 -999
2008-02-11 09:29:35 51°14.416 2°54.521 -999 -999 -999 -999 -999
2008-02-11 09:29:40 51°14.413 2°54.496 -999 -999 -999 -999 -999
2008-02-11 09:29:46 51°14.409 2°54.466 -999 -999 -999 -999 -999
2008-02-11 09:29:51 51°14.405 2°54.442 -999 -999 -999 -999 -999
2008-02-11 09:29:55 51°14.401 2°54.422 -999 -999 -999 -999 -999
2008-02-11 09:30:00 51°14.395 2°54.399 -999 -999 -999 -999 -999
2008-02-11 09:30:05 51°14.389 2°54.376 -999 -999 -999 -999 -999
2008-02-11 09:30:10 51°14.382 2°54.354 -999 -999 -999 -999 -999
2008-02-11 09:30:15 51°14.374 2°54.332 -999 -999 -999 -999 -999
2008-02-11 09:30:20 51°14.366 2°54.309 -999 -999 -999 -999 -999
2008-02-11 09:30:25 51°14.358 2°54.287 -999 -999 -999 -999 -999
2008-02-11 09:30:30 51°14.35 2°54.265 -999 -999 -999 -999 -999
2008-02-11 09:30:35 51°14.342 2°54.243 -999 -999 -999 -999 -999
2008-02-11 09:30:40 51°14.334 2°54.22 -999 -999 -999 -999 -999
2008-02-11 09:30:45 51°14.327 2°54.197 -999 -999 -999 -999 -999
2008-02-11 09:30:50 51°14.319 2°54.174 -999 -999 -999 -999 -999
2008-02-11 09:30:55 51°14.311 2°54.152 -999 -999 -999 -999 -999
2008-02-11 09:31:00 51°14.304 2°54.129 -999 -999 -999 -999 -999
2008-02-11 09:31:05 51°14.296 2°54.107 -999 -999 -999 -999 -999
2008-02-11 09:31:10 51°14.288 2°54.084 -999 -999 -999 -999 -999
2008-02-11 09:31:15 51°14.28 2°54.062 -999 -999 -999 -999 -999
2008-02-11 09:31:20 51°14.272 2°54.039 -999 -999 -999 -999 -999
2008-02-11 09:31:25 51°14.265 2°54.015 -999 -999 -999 -999 -999
2008-02-11 09:31:30 51°14.257 2°53.992 -999 -999 -999 -999 -999
2008-02-11 09:31:35 51°14.251 2°53.969 -999 -999 -999 -999 -999
2008-02-11 09:31:40 51°14.244 2°53.945 -999 -999 -999 -999 -999
2008-02-11 09:31:45 51°14.237 2°53.921 -999 -999 -999 -999 -999
2008-02-11 09:31:50 51°14.231 2°53.897 -999 -999 -999 -999 -999
2008-02-11 09:31:55 51°14.224 2°53.873 -999 -999 -999 -999 -999
2008-02-11 09:32:00 51°14.218 2°53.849 -999 -999 -999 -999 -999
2008-02-11 09:32:05 51°14.212 2°53.824 -999 -999 -999 -999 -999
2008-02-11 09:32:10 51°14.205 2°53.8 -999 -999 -999 -999 -999
2008-02-11 09:32:15 51°14.199 2°53.776 -999 -999 -999 -999 -999
2008-02-11 09:32:20 51°14.192 2°53.752 -999 -999 -999 -999 -999
2008-02-11 09:32:25 51°14.185 2°53.728 -999 -999 -999 -999 -999
2008-02-11 09:32:30 51°14.178 2°53.704 -999 -999 -999 -999 -999
2008-02-11 09:32:35 51°14.171 2°53.68 -999 -999 -999 -999 -999
2008-02-11 09:32:40 51°14.164 2°53.656 -999 -999 -999 -999 -999
2008-02-11 09:32:45 51°14.157 2°53.632 -999 -999 -999 -999 -999
2008-02-11 09:32:50 51°14.15 2°53.608 -999 -999 -999 -999 -999
2008-02-11 09:32:55 51°14.144 2°53.583 -999 -999 -999 -999 -999
2008-02-11 09:33:00 51°14.137 2°53.559 -999 -999 -999 -999 -999
2008-02-11 09:33:05 51°14.13 2°53.534 -999 -999 -999 -999 -999
2008-02-11 09:33:10 51°14.123 2°53.508 -999 -999 -999 -999 -999
2008-02-11 09:33:15 51°14.116 2°53.483 -999 -999 -999 -999 -999
2008-02-11 09:33:20 51°14.109 2°53.457 -999 -999 -999 -999 -999
2008-02-11 09:33:25 51°14.102 2°53.431 -999 -999 -999 -999 -999
2008-02-11 09:33:30 51°14.094 2°53.405 -999 -999 -999 -999 -999
2008-02-11 09:33:35 51°14.087 2°53.379 -999 -999 -999 -999 -999
2008-02-11 09:33:40 51°14.079 2°53.353 -999 -999 -999 -999 -999
2008-02-11 09:33:45 51°14.071 2°53.327 -999 -999 -999 -999 -999
2008-02-11 09:33:50 51°14.063 2°53.301 -999 -999 -999 -999 -999
2008-02-11 09:33:55 51°14.056 2°53.274 -999 -999 -999 -999 -999
2008-02-11 09:34:00 51°14.048 2°53.247 -999 -999 -999 -999 -999
2008-02-11 09:34:05 51°14.04 2°53.221 -999 -999 -999 -999 -999
2008-02-11 09:34:10 51°14.032 2°53.194 -999 -999 -999 -999 -999
2008-02-11 09:34:15 51°14.024 2°53.168 -999 -999 -999 -999 -999
2008-02-11 09:34:20 51°14.016 2°53.142 -999 -999 -999 -999 -999
2008-02-11 09:34:25 51°14.007 2°53.116 -999 -999 -999 -999 -999
2008-02-11 09:34:30 51°13.997 2°53.091 -999 -999 -999 -999 -999
2008-02-11 09:34:35 51°13.988 2°53.065 -999 -999 -999 -999 -999
2008-02-11 09:34:40 51°13.978 2°53.04 -999 -999 -999 -999 -999
2008-02-11 09:34:45 51°13.969 2°53.015 -999 -999 -999 -999 -999
2008-02-11 09:34:50 51°13.959 2°52.991 -999 -999 -999 -999 -999
2008-02-11 09:34:55 51°13.949 2°52.968 -999 -999 -999 -999 -999
2008-02-11 09:35:00 51°13.939 2°52.946 -999 -999 -999 -999 -999
2008-02-11 09:35:05 51°13.929 2°52.924 -999 -999 -999 -999 -999
2008-02-11 09:35:10 51°13.918 2°52.902 -999 -999 -999 -999 -999
2008-02-11 09:35:15 51°13.908 2°52.882 -999 -999 -999 -999 -999
2008-02-11 09:35:20 51°13.898 2°52.861 -999 -999 -999 -999 -999
2008-02-11 09:35:25 51°13.888 2°52.84 -999 -999 -999 -999 -999
2008-02-11 09:35:30 51°13.879 2°52.818 -999 -999 -999 -999 -999
2008-02-11 09:35:35 51°13.87 2°52.797 -999 -999 -999 -999 -999
2008-02-11 09:35:40 51°13.862 2°52.775 -999 -999 -999 -999 -999
2008-02-11 09:35:45 51°13.855 2°52.753 -999 -999 -999 -999 -999
2008-02-11 09:35:50 51°13.848 2°52.73 -999 -999 -999 -999 -999
2008-02-11 09:35:55 51°13.841 2°52.707 -999 -999 -999 -999 -999
2008-02-11 09:36:00 51°13.835 2°52.685 -999 -999 -999 -999 -999
2008-02-11 09:36:05 51°13.829 2°52.662 -999 -999 -999 -999 -999
2008-02-11 09:36:10 51°13.823 2°52.638 -999 -999 -999 -999 -999
2008-02-11 09:36:15 51°13.817 2°52.615 -999 -999 -999 -999 -999
2008-02-11 09:36:20 51°13.812 2°52.592 -999 -999 -999 -999 -999
2008-02-11 09:36:25 51°13.806 2°52.569 -999 -999 -999 -999 -999
2008-02-11 09:36:30 51°13.801 2°52.545 -999 -999 -999 -999 -999
2008-02-11 09:36:35 51°13.795 2°52.522 -999 -999 -999 -999 -999
2008-02-11 09:36:40 51°13.79 2°52.5 -999 -999 -999 -999 -999
2008-02-11 09:36:45 51°13.785 2°52.477 -999 -999 -999 -999 -999
2008-02-11 09:36:50 51°13.779 2°52.455 -999 -999 -999 -999 -999
2008-02-11 09:36:55 51°13.774 2°52.434 -999 -999 -999 -999 -999
2008-02-11 09:37:00 51°13.768 2°52.412 -999 -999 -999 -999 -999
2008-02-11 09:37:05 51°13.763 2°52.391 -999 -999 -999 -999 -999
2008-02-11 09:37:11 51°13.756 2°52.366 -999 -999 -999 -999 -999
2008-02-11 09:37:15 51°13.752 2°52.349 -999 -999 -999 -999 -999
2008-02-11 09:37:20 51°13.747 2°52.328 -999 -999 -999 -999 -999
2008-02-11 09:37:25 51°13.741 2°52.308 -999 -999 -999 -999 -999
2008-02-11 09:37:30 51°13.734 2°52.288 -999 -999 -999 -999 -999
2008-02-11 09:37:35 51°13.728 2°52.269 -999 -999 -999 -999 -999
2008-02-11 09:37:40 51°13.721 2°52.25 -999 -999 -999 -999 -999
2008-02-11 09:37:45 51°13.714 2°52.231 -999 -999 -999 -999 -999
2008-02-11 09:37:50 51°13.706 2°52.213 -999 -999 -999 -999 -999
2008-02-11 09:37:55 51°13.698 2°52.195 -999 -999 -999 -999 -999
2008-02-11 09:38:00 51°13.69 2°52.177 -999 -999 -999 -999 -999
2008-02-11 09:38:05 51°13.682 2°52.16 -999 -999 -999 -999 -999
2008-02-11 09:38:10 51°13.674 2°52.143 -999 -999 -999 -999 -999
2008-02-11 09:38:15 51°13.665 2°52.126 -999 -999 -999 -999 -999
2008-02-11 09:38:20 51°13.656 2°52.109 -999 -999 -999 -999 -999
2008-02-11 09:38:25 51°13.647 2°52.093 -999 -999 -999 -999 -999
2008-02-11 09:38:30 51°13.638 2°52.077 -999 -999 -999 -999 -999
2008-02-11 09:38:35 51°13.629 2°52.061 -999 -999 -999 -999 -999
2008-02-11 09:38:40 51°13.62 2°52.045 -999 -999 -999 -999 -999
2008-02-11 09:38:45 51°13.61 2°52.029 -999 -999 -999 -999 -999
2008-02-11 09:38:50 51°13.601 2°52.013 -999 -999 -999 -999 -999
2008-02-11 09:38:55 51°13.592 2°51.996 -999 -999 -999 -999 -999
2008-02-11 09:39:00 51°13.583 2°51.98 -999 -999 -999 -999 -999
2008-02-11 09:39:05 51°13.574 2°51.964 -999 -999 -999 -999 -999
2008-02-11 09:39:10 51°13.564 2°51.948 -999 -999 -999 -999 -999
2008-02-11 09:39:15 51°13.555 2°51.932 -999 -999 -999 -999 -999
2008-02-11 09:39:20 51°13.546 2°51.916 -999 -999 -999 -999 -999
2008-02-11 09:39:25 51°13.537 2°51.9 -999 -999 -999 -999 -999
2008-02-11 09:39:30 51°13.528 2°51.884 -999 -999 -999 -999 -999
2008-02-11 09:39:35 51°13.518 2°51.867 -999 -999 -999 -999 -999
2008-02-11 09:39:40 51°13.509 2°51.851 -999 -999 -999 -999 -999
2008-02-11 09:39:45 51°13.5 2°51.835 -999 -999 -999 -999 -999
2008-02-11 09:39:50 51°13.491 2°51.819 -999 -999 -999 -999 -999
2008-02-11 09:39:55 51°13.482 2°51.803 -999 -999 -999 -999 -999
2008-02-11 09:40:00 51°13.472 2°51.787 -999 -999 -999 -999 -999
2008-02-11 09:40:05 51°13.463 2°51.77 -999 -999 -999 -999 -999
2008-02-11 09:40:10 51°13.454 2°51.754 -999 -999 -999 -999 -999
2008-02-11 09:40:15 51°13.445 2°51.738 -999 -999 -999 -999 -999
2008-02-11 09:40:20 51°13.436 2°51.721 -999 -999 -999 -999 -999
2008-02-11 09:40:25 51°13.427 2°51.705 -999 -999 -999 -999 -999
2008-02-11 09:40:30 51°13.418 2°51.688 -999 -999 -999 -999 -999
2008-02-11 09:40:35 51°13.409 2°51.672 -999 -999 -999 -999 -999
2008-02-11 09:40:40 51°13.4 2°51.656 -999 -999 -999 -999 -999
2008-02-11 09:40:45 51°13.39 2°51.639 -999 -999 -999 -999 -999
2008-02-11 09:40:50 51°13.382 2°51.623 -999 -999 -999 -999 -999
2008-02-11 09:40:55 51°13.372 2°51.607 -999 -999 -999 -999 -999
2008-02-11 09:41:00 51°13.363 2°51.591 -999 -999 -999 -999 -999
2008-02-11 09:41:05 51°13.354 2°51.575 -999 -999 -999 -999 -999
2008-02-11 09:41:10 51°13.345 2°51.558 -999 -999 -999 -999 -999
2008-02-11 09:41:15 51°13.336 2°51.542 -999 -999 -999 -999 -999
2008-02-11 09:41:20 51°13.327 2°51.526 -999 -999 -999 -999 -999
2008-02-11 09:41:25 51°13.317 2°51.51 -999 -999 -999 -999 -999
2008-02-11 09:41:30 51°13.308 2°51.493 -999 -999 -999 -999 -999
2008-02-11 09:41:35 51°13.299 2°51.477 -999 -999 -999 -999 -999
2008-02-11 09:41:40 51°13.29 2°51.461 -999 -999 -999 -999 -999
2008-02-11 09:41:45 51°13.282 2°51.446 -999 -999 -999 -999 -999
2008-02-11 09:41:50 51°13.274 2°51.431 -999 -999 -999 -999 -999
2008-02-11 09:41:55 51°13.267 2°51.416 -999 -999 -999 -999 -999
2008-02-11 09:42:00 51°13.261 2°51.401 -999 -999 -999 -999 -999
2008-02-11 09:42:05 51°13.257 2°51.387 -999 -999 -999 -999 -999
2008-02-11 09:42:10 51°13.253 2°51.372 -999 -999 -999 -999 -999
2008-02-11 09:42:15 51°13.25 2°51.359 -999 -999 -999 -999 -999
2008-02-11 09:42:20 51°13.248 2°51.345 -999 -999 -999 -999 -999
2008-02-11 09:42:25 51°13.246 2°51.332 -999 -999 -999 -999 -999
2008-02-11 09:42:30 51°13.245 2°51.319 -999 -999 -999 -999 -999
2008-02-11 09:42:35 51°13.244 2°51.306 -999 -999 -999 -999 -999
2008-02-11 09:42:40 51°13.245 2°51.294 -999 -999 -999 -999 -999
2008-02-11 09:42:45 51°13.245 2°51.281 -999 -999 -999 -999 -999
2008-02-11 09:42:50 51°13.247 2°51.269 -999 -999 -999 -999 -999
2008-02-11 09:42:55 51°13.25 2°51.258 -999 -999 -999 -999 -999
2008-02-11 09:43:00 51°13.253 2°51.248 -999 -999 -999 -999 -999
2008-02-11 09:43:05 51°13.257 2°51.239 -999 -999 -999 -999 -999
2008-02-11 09:43:10 51°13.261 2°51.23 -999 -999 -999 -999 -999
2008-02-11 09:43:15 51°13.266 2°51.223 -999 -999 -999 -999 -999
2008-02-11 09:43:20 51°13.271 2°51.216 -999 -999 -999 -999 -999
2008-02-11 09:43:25 51°13.276 2°51.212 -999 -999 -999 -999 -999
2008-02-11 09:43:30 51°13.281 2°51.208 -999 -999 -999 -999 -999
2008-02-11 09:43:35 51°13.287 2°51.205 -999 -999 -999 -999 -999
2008-02-11 09:43:40 51°13.292 2°51.203 -999 -999 -999 -999 -999
2008-02-11 09:43:45 51°13.297 2°51.203 -999 -999 -999 -999 -999
2008-02-11 09:43:50 51°13.302 2°51.204 -999 -999 -999 -999 -999
2008-02-11 09:43:55 51°13.307 2°51.206 -999 -999 -999 -999 -999
2008-02-11 09:44:00 51°13.311 2°51.209 -999 -999 -999 -999 -999
2008-02-11 09:44:05 51°13.316 2°51.213 -999 -999 -999 -999 -999
2008-02-11 09:44:10 51°13.32 2°51.217 -999 -999 -999 -999 -999
2008-02-11 09:44:15 51°13.324 2°51.223 -999 -999 -999 -999 -999
2008-02-11 09:44:20 51°13.329 2°51.229 -999 -999 -999 -999 -999
2008-02-11 09:44:25 51°13.333 2°51.236 -999 -999 -999 -999 -999
2008-02-11 09:44:30 51°13.337 2°51.244 -999 -999 -999 -999 -999
2008-02-11 09:44:35 51°13.342 2°51.252 -999 -999 -999 -999 -999
2008-02-11 09:44:40 51°13.347 2°51.26 -999 -999 -999 -999 -999
2008-02-11 09:44:45 51°13.352 2°51.268 -999 -999 -999 -999 -999
2008-02-11 09:44:50 51°13.358 2°51.276 -999 -999 -999 -999 -999
2008-02-11 09:44:55 51°13.364 2°51.284 -999 -999 -999 -999 -999
2008-02-11 09:45:00 51°13.37 2°51.292 -999 -999 -999 -999 -999
2008-02-11 09:45:05 51°13.376 2°51.301 -999 -999 -999 -999 -999
2008-02-11 09:45:10 51°13.382 2°51.31 -999 -999 -999 -999 -999
2008-02-11 09:45:15 51°13.388 2°51.319 -999 -999 -999 -999 -999
2008-02-11 09:45:20 51°13.394 2°51.329 -999 -999 -999 -999 -999
2008-02-11 09:45:25 51°13.4 2°51.339 -999 -999 -999 -999 -999
2008-02-11 09:45:30 51°13.405 2°51.348 -999 -999 -999 -999 -999
2008-02-11 09:45:35 51°13.41 2°51.357 -999 -999 -999 -999 -999
2008-02-11 09:45:40 51°13.415 2°51.365 -999 -999 -999 -999 -999
2008-02-11 09:45:45 51°13.419 2°51.373 -999 -999 -999 -999 -999
2008-02-11 09:45:50 51°13.423 2°51.381 -999 -999 -999 -999 -999
2008-02-11 09:45:55 51°13.426 2°51.388 -999 -999 -999 -999 -999
2008-02-11 09:46:00 51°13.43 2°51.395 -999 -999 -999 -999 -999
2008-02-11 09:46:05 51°13.433 2°51.401 -999 -999 -999 -999 -999
2008-02-11 09:46:10 51°13.436 2°51.407 -999 -999 -999 -999 -999
2008-02-11 09:46:15 51°13.439 2°51.413 -999 -999 -999 -999 -999
2008-02-11 09:46:20 51°13.441 2°51.418 -999 -999 -999 -999 -999
2008-02-11 09:46:25 51°13.444 2°51.423 -999 -999 -999 -999 -999
2008-02-11 09:46:30 51°13.446 2°51.427 -999 -999 -999 -999 -999
2008-02-11 09:46:35 51°13.448 2°51.431 -999 -999 -999 -999 -999
2008-02-11 09:46:40 51°13.451 2°51.435 -999 -999 -999 -999 -999
2008-02-11 09:46:45 51°13.452 2°51.438 -999 -999 -999 -999 -999
2008-02-11 09:46:50 51°13.455 2°51.442 -999 -999 -999 -999 -999
2008-02-11 09:46:55 51°13.457 2°51.444 -999 -999 -999 -999 -999
2008-02-11 09:47:00 51°13.459 2°51.448 -999 -999 -999 -999 -999
2008-02-11 09:47:05 51°13.461 2°51.45 -999 -999 -999 -999 -999
2008-02-11 09:47:10 51°13.463 2°51.453 -999 -999 -999 -999 -999
2008-02-11 09:47:15 51°13.464 2°51.456 -999 -999 -999 -999 -999
2008-02-11 09:47:20 51°13.466 2°51.458 -999 -999 -999 -999 -999
2008-02-11 09:47:25 51°13.468 2°51.46 -999 -999 -999 -999 -999
2008-02-11 09:47:30 51°13.47 2°51.462 -999 -999 -999 -999 -999
2008-02-11 09:47:35 51°13.473 2°51.464 -999 -999 -999 -999 -999
2008-02-11 09:47:40 51°13.475 2°51.466 -999 -999 -999 -999 -999
2008-02-11 09:47:45 51°13.477 2°51.468 -999 -999 -999 -999 -999
2008-02-11 09:47:50 51°13.479 2°51.47 -999 -999 -999 -999 -999
2008-02-11 09:47:55 51°13.481 2°51.471 -999 -999 -999 -999 -999
2008-02-11 09:48:00 51°13.483 2°51.474 -999 -999 -999 -999 -999
2008-02-11 09:48:05 51°13.485 2°51.475 -999 -999 -999 -999 -999
2008-02-11 09:48:10 51°13.487 2°51.477 -999 -999 -999 -999 -999
2008-02-11 09:48:15 51°13.489 2°51.479 -999 -999 -999 -999 -999
2008-02-11 09:48:20 51°13.49 2°51.48 -999 -999 -999 -999 -999
2008-02-11 09:48:25 51°13.491 2°51.481 -999 -999 -999 -999 -999
2008-02-11 09:48:31 51°13.493 2°51.482 -999 -999 -999 -999 -999
2008-02-11 09:48:35 51°13.493 2°51.483 -999 -999 -999 -999 -999
2008-02-11 09:48:40 51°13.494 2°51.484 -999 -999 -999 -999 -999
2008-02-11 09:48:45 51°13.495 2°51.484 -999 -999 -999 -999 -999
2008-02-11 09:48:50 51°13.495 2°51.485 -999 -999 -999 -999 -999
2008-02-11 09:48:55 51°13.496 2°51.486 -999 -999 -999 -999 -999
2008-02-11 09:49:00 51°13.496 2°51.486 -999 -999 -999 -999 -999
2008-02-11 09:49:05 51°13.496 2°51.486 -999 -999 -999 -999 -999
2008-02-11 09:49:10 51°13.497 2°51.487 -999 -999 -999 -999 -999
2008-02-11 09:49:15 51°13.497 2°51.487 -999 -999 -999 -999 -999
2008-02-11 09:49:20 51°13.497 2°51.488 -999 -999 -999 -999 -999
2008-02-11 09:49:25 51°13.497 2°51.488 -999 -999 -999 -999 -999
2008-02-11 09:49:30 51°13.497 2°51.488 -999 -999 -999 -999 -999
2008-02-11 09:49:35 51°13.497 2°51.488 -999 -999 -999 -999 -999
2008-02-11 09:49:40 51°13.497 2°51.488 -999 -999 -999 -999 -999
2008-02-11 09:49:45 51°13.497 2°51.488 -999 -999 -999 -999 -999
2008-02-11 09:49:50 51°13.497 2°51.488 -999 -999 -999 -999 -999
2008-02-11 09:49:55 51°13.497 2°51.487 -999 -999 -999 -999 -999
2008-02-11 09:50:00 51°13.497 2°51.487 -999 -999 -999 -999 -999
2008-02-11 09:50:05 51°13.497 2°51.487 -999 -999 -999 -999 -999
2008-02-11 09:50:10 51°13.497 2°51.486 -999 -999 -999 -999 -999
2008-02-11 09:50:15 51°13.497 2°51.486 -999 -999 -999 -999 -999
2008-02-11 09:50:20 51°13.497 2°51.485 -999 -999 -999 -999 -999
2008-02-11 09:50:25 51°13.497 2°51.485 -999 -999 -999 -999 -999
2008-02-11 09:50:30 51°13.497 2°51.484 -999 -999 -999 -999 -999
2008-02-11 09:50:35 51°13.497 2°51.484 -999 -999 -999 -999 -999
2008-02-11 09:50:40 51°13.497 2°51.483 -999 -999 -999 -999 -999
2008-02-11 09:50:45 51°13.496 2°51.482 -999 -999 -999 -999 -999
2008-02-11 09:50:51 51°13.496 2°51.481 -999 -999 -999 -999 -999
2008-02-11 09:50:55 51°13.496 2°51.481 -999 -999 -999 -999 -999
2008-02-11 09:51:00 51°13.496 2°51.48 -999 -999 -999 -999 -999
2008-02-11 09:51:05 51°13.496 2°51.479 -999 -999 -999 -999 -999
2008-02-11 09:51:10 51°13.495 2°51.478 -999 -999 -999 -999 -999
2008-02-11 09:51:15 51°13.495 2°51.477 -999 -999 -999 -999 -999
2008-02-11 09:51:20 51°13.495 2°51.476 -999 -999 -999 -999 -999
2008-02-11 09:51:25 51°13.495 2°51.475 -999 -999 -999 -999 -999
2008-02-11 09:51:30 51°13.494 2°51.474 -999 -999 -999 -999 -999
2008-02-11 09:51:35 51°13.494 2°51.473 -999 -999 -999 -999 -999
2008-02-11 09:51:40 51°13.494 2°51.472 -999 -999 -999 -999 -999
2008-02-11 09:51:45 51°13.494 2°51.471 -999 -999 -999 -999 -999
2008-02-11 09:51:50 51°13.494 2°51.47 -999 -999 -999 -999 -999
2008-02-11 09:51:55 51°13.493 2°51.469 -999 -999 -999 -999 -999
2008-02-11 09:52:00 51°13.493 2°51.468 -999 -999 -999 -999 -999
2008-02-11 09:52:05 51°13.493 2°51.466 -999 -999 -999 -999 -999
2008-02-11 09:52:10 51°13.492 2°51.465 -999 -999 -999 -999 -999
2008-02-11 09:52:15 51°13.492 2°51.464 -999 -999 -999 -999 -999
2008-02-11 09:52:20 51°13.492 2°51.462 -999 -999 -999 -999 -999
2008-02-11 09:52:25 51°13.491 2°51.461 -999 -999 -999 -999 -999
2008-02-11 09:52:30 51°13.491 2°51.46 -999 -999 -999 -999 -999
2008-02-11 09:52:35 51°13.491 2°51.458 -999 -999 -999 -999 -999
2008-02-11 09:52:40 51°13.491 2°51.457 -999 -999 -999 -999 -999
2008-02-11 09:52:45 51°13.49 2°51.456 -999 -999 -999 -999 -999
2008-02-11 09:52:50 51°13.49 2°51.454 -999 -999 -999 -999 -999
2008-02-11 09:52:55 51°13.49 2°51.453 -999 -999 -999 -999 -999
2008-02-11 09:53:00 51°13.489 2°51.451 -999 -999 -999 -999 -999
2008-02-11 09:53:05 51°13.489 2°51.45 -999 -999 -999 -999 -999
2008-02-11 09:53:11 51°13.489 2°51.448 -999 -999 -999 -999 -999
2008-02-11 09:53:15 51°13.488 2°51.447 -999 -999 -999 -999 -999
2008-02-11 09:53:20 51°13.488 2°51.445 -999 -999 -999 -999 -999
2008-02-11 09:53:25 51°13.488 2°51.444 -999 -999 -999 -999 -999
2008-02-11 09:53:30 51°13.487 2°51.442 -999 -999 -999 -999 -999
2008-02-11 09:53:35 51°13.487 2°51.44 -999 -999 -999 -999 -999
2008-02-11 09:53:40 51°13.487 2°51.439 -999 -999 -999 -999 -999
2008-02-11 09:53:45 51°13.486 2°51.437 -999 -999 -999 -999 -999
2008-02-11 09:53:50 51°13.486 2°51.435 -999 -999 -999 -999 -999
2008-02-11 09:53:55 51°13.485 2°51.434 -999 -999 -999 -999 -999
2008-02-11 09:54:00 51°13.485 2°51.432 -999 -999 -999 -999 -999
2008-02-11 09:54:05 51°13.485 2°51.43 -999 -999 -999 -999 -999
2008-02-11 09:54:10 51°13.484 2°51.429 -999 -999 -999 -999 -999
2008-02-11 09:54:15 51°13.484 2°51.427 -999 -999 -999 -999 -999
2008-02-11 09:54:20 51°13.483 2°51.425 -999 -999 -999 -999 -999
2008-02-11 09:54:25 51°13.483 2°51.423 -999 -999 -999 -999 -999
2008-02-11 09:54:30 51°13.482 2°51.421 -999 -999 -999 -999 -999
2008-02-11 09:54:35 51°13.482 2°51.42 -999 -999 -999 -999 -999
2008-02-11 09:54:40 51°13.481 2°51.418 -999 -999 -999 -999 -999
2008-02-11 09:54:45 51°13.481 2°51.416 -999 -999 -999 -999 -999
2008-02-11 09:54:50 51°13.481 2°51.414 -999 -999 -999 -999 -999
2008-02-11 09:54:55 51°13.48 2°51.412 -999 -999 -999 -999 -999
2008-02-11 09:55:00 51°13.48 2°51.41 -999 -999 -999 -999 -999
2008-02-11 09:55:05 51°13.479 2°51.408 -999 -999 -999 -999 -999
2008-02-11 09:55:10 51°13.479 2°51.406 -999 -999 -999 -999 -999
2008-02-11 09:55:15 51°13.478 2°51.404 -999 -999 -999 -999 -999
2008-02-11 09:55:20 51°13.478 2°51.402 -999 -999 -999 -999 -999
2008-02-11 09:55:25 51°13.477 2°51.4 -999 -999 -999 -999 -999
2008-02-11 09:55:30 51°13.477 2°51.398 -999 -999 -999 -999 -999
2008-02-11 09:55:35 51°13.476 2°51.396 -999 -999 -999 -999 -999
2008-02-11 09:55:40 51°13.476 2°51.394 -999 -999 -999 -999 -999
2008-02-11 09:55:45 51°13.476 2°51.392 -999 -999 -999 -999 -999
2008-02-11 09:55:50 51°13.475 2°51.39 -999 -999 -999 -999 -999
2008-02-11 09:55:55 51°13.475 2°51.388 -999 -999 -999 -999 -999
2008-02-11 09:56:00 51°13.474 2°51.386 -999 -999 -999 -999 -999
2008-02-11 09:56:05 51°13.474 2°51.384 -999 -999 -999 -999 -999
2008-02-11 09:56:10 51°13.473 2°51.382 -999 -999 -999 -999 -999
2008-02-11 09:56:15 51°13.473 2°51.38 -999 -999 -999 -999 -999
2008-02-11 09:56:20 51°13.472 2°51.378 -999 -999 -999 -999 -999
2008-02-11 09:56:25 51°13.472 2°51.375 -999 -999 -999 -999 -999
2008-02-11 09:56:30 51°13.471 2°51.373 -999 -999 -999 -999 -999
2008-02-11 09:56:35 51°13.471 2°51.371 -999 -999 -999 -999 -999
2008-02-11 09:56:40 51°13.47 2°51.369 -999 -999 -999 -999 -999
2008-02-11 09:56:45 51°13.47 2°51.367 -999 -999 -999 -999 -999
2008-02-11 09:56:50 51°13.469 2°51.365 -999 -999 -999 -999 -999
2008-02-11 09:56:55 51°13.468 2°51.363 -999 -999 -999 -999 -999
2008-02-11 09:57:00 51°13.468 2°51.361 -999 -999 -999 -999 -999
2008-02-11 09:57:05 51°13.467 2°51.358 -999 -999 -999 -999 -999
2008-02-11 09:57:10 51°13.467 2°51.356 -999 -999 -999 -999 -999
2008-02-11 09:57:15 51°13.467 2°51.354 -999 -999 -999 -999 -999
2008-02-11 09:57:20 51°13.466 2°51.352 -999 -999 -999 -999 -999
2008-02-11 09:57:25 51°13.465 2°51.35 -999 -999 -999 -999 -999
2008-02-11 09:57:30 51°13.465 2°51.347 -999 -999 -999 -999 -999
2008-02-11 09:57:35 51°13.464 2°51.345 -999 -999 -999 -999 -999
2008-02-11 09:57:40 51°13.464 2°51.343 -999 -999 -999 -999 -999
2008-02-11 09:57:45 51°13.463 2°51.341 -999 -999 -999 -999 -999
2008-02-11 09:57:50 51°13.462 2°51.338 -999 -999 -999 -999 -999
2008-02-11 09:57:55 51°13.462 2°51.336 -999 -999 -999 -999 -999
2008-02-11 09:58:00 51°13.461 2°51.334 -999 -999 -999 -999 -999
2008-02-11 09:58:05 51°13.461 2°51.331 -999 -999 -999 -999 -999
2008-02-11 09:58:10 51°13.46 2°51.329 -999 -999 -999 -999 -999
2008-02-11 09:58:15 51°13.46 2°51.327 -999 -999 -999 -999 -999
2008-02-11 09:58:20 51°13.459 2°51.324 -999 -999 -999 -999 -999
2008-02-11 09:58:25 51°13.459 2°51.322 -999 -999 -999 -999 -999
2008-02-11 09:58:30 51°13.458 2°51.32 -999 -999 -999 -999 -999
2008-02-11 09:58:35 51°13.458 2°51.317 -999 -999 -999 -999 -999
2008-02-11 09:58:40 51°13.457 2°51.315 -999 -999 -999 -999 -999
2008-02-11 09:58:45 51°13.456 2°51.312 -999 -999 -999 -999 -999
2008-02-11 09:58:50 51°13.456 2°51.31 -999 -999 -999 -999 -999
2008-02-11 09:58:55 51°13.455 2°51.308 -999 -999 -999 -999 -999
2008-02-11 09:59:00 51°13.455 2°51.305 -999 -999 -999 -999 -999
2008-02-11 09:59:05 51°13.455 2°51.303 -999 -999 -999 -999 -999
2008-02-11 09:59:10 51°13.454 2°51.3 -999 -999 -999 -999 -999
2008-02-11 09:59:15 51°13.454 2°51.298 -999 -999 -999 -999 -999
2008-02-11 09:59:20 51°13.453 2°51.296 -999 -999 -999 -999 -999
2008-02-11 09:59:25 51°13.452 2°51.293 -999 -999 -999 -999 -999
2008-02-11 09:59:30 51°13.452 2°51.291 -999 -999 -999 -999 -999
2008-02-11 09:59:35 51°13.452 2°51.289 -999 -999 -999 -999 -999
2008-02-11 09:59:40 51°13.451 2°51.288 -999 -999 -999 -999 -999
2008-02-11 09:59:45 51°13.451 2°51.287 -999 -999 -999 -999 -999
2008-02-11 09:59:50 51°13.451 2°51.286 -999 -999 -999 -999 -999
2008-02-11 09:59:55 51°13.452 2°51.286 -999 -999 -999 -999 -999
2008-02-11 10:00:00 51°13.452 2°51.287 -999 -999 -999 -999 -999
2008-02-11 10:00:05 51°13.453 2°51.289 -999 -999 -999 -999 -999
2008-02-11 10:00:10 51°13.454 2°51.291 -999 -999 -999 -999 -999
2008-02-11 10:00:15 51°13.454 2°51.294 -999 -999 -999 -999 -999
2008-02-11 10:00:20 51°13.455 2°51.297 -999 -999 -999 -999 -999
2008-02-11 10:00:25 51°13.456 2°51.301 -999 -999 -999 -999 -999
2008-02-11 10:00:30 51°13.458 2°51.306 -999 -999 -999 -999 -999
2008-02-11 10:00:35 51°13.46 2°51.312 -999 -999 -999 -999 -999
2008-02-11 10:00:40 51°13.462 2°51.319 -999 -999 -999 -999 -999
2008-02-11 10:00:45 51°13.464 2°51.327 -999 -999 -999 -999 -999
2008-02-11 10:00:50 51°13.466 2°51.336 -999 -999 -999 -999 -999
2008-02-11 10:00:55 51°13.468 2°51.346 -999 -999 -999 -999 -999
2008-02-11 10:01:00 51°13.471 2°51.356 -999 -999 -999 -999 -999
2008-02-11 10:01:05 51°13.473 2°51.367 -999 -999 -999 -999 -999
2008-02-11 10:01:10 51°13.477 2°51.378 -999 -999 -999 -999 -999
2008-02-11 10:01:15 51°13.48 2°51.39 -999 -999 -999 -999 -999
2008-02-11 10:01:20 51°13.484 2°51.402 -999 -999 -999 -999 -999
2008-02-11 10:01:25 51°13.487 2°51.413 -999 -999 -999 -999 -999
2008-02-11 10:01:30 51°13.49 2°51.424 -999 -999 -999 -999 -999
2008-02-11 10:01:35 51°13.493 2°51.433 -999 -999 -999 -999 -999
2008-02-11 10:01:40 51°13.495 2°51.442 -999 -999 -999 -999 -999
2008-02-11 10:01:45 51°13.498 2°51.451 -999 -999 -999 -999 -999
2008-02-11 10:01:50 51°13.5 2°51.459 -999 -999 -999 -999 -999
2008-02-11 10:01:55 51°13.503 2°51.466 -999 -999 -999 -999 -999
2008-02-11 10:02:00 51°13.505 2°51.472 -999 -999 -999 -999 -999
2008-02-11 10:02:05 51°13.508 2°51.479 -999 -999 -999 -999 -999
2008-02-11 10:02:11 51°13.51 2°51.485 -999 -999 -999 -999 -999
2008-02-11 10:02:15 51°13.512 2°51.489 -999 -999 -999 -999 -999
2008-02-11 10:02:20 51°13.514 2°51.494 -999 -999 -999 -999 -999
2008-02-11 10:02:25 51°13.516 2°51.498 -999 -999 -999 -999 -999
2008-02-11 10:02:30 51°13.518 2°51.502 -999 -999 -999 -999 -999
2008-02-11 10:02:35 51°13.519 2°51.505 -999 -999 -999 -999 -999
2008-02-11 10:02:40 51°13.519 2°51.508 -999 -999 -999 -999 -999
2008-02-11 10:02:45 51°13.52 2°51.51 -999 -999 -999 -999 -999
2008-02-11 10:02:50 51°13.521 2°51.513 -999 -999 -999 -999 -999
2008-02-11 10:02:55 51°13.521 2°51.515 -999 -999 -999 -999 -999
2008-02-11 10:03:00 51°13.521 2°51.517 -999 -999 -999 -999 -999
2008-02-11 10:03:05 51°13.521 2°51.519 -999 -999 -999 -999 -999
2008-02-11 10:03:10 51°13.521 2°51.521 -999 -999 -999 -999 -999
2008-02-11 10:03:15 51°13.52 2°51.523 -999 -999 -999 -999 -999
2008-02-11 10:03:20 51°13.52 2°51.524 -999 -999 -999 -999 -999
2008-02-11 10:03:25 51°13.52 2°51.526 -999 -999 -999 -999 -999
2008-02-11 10:03:30 51°13.519 2°51.527 -999 -999 -999 -999 -999
2008-02-11 10:03:35 51°13.519 2°51.529 -999 -999 -999 -999 -999
2008-02-11 10:03:40 51°13.519 2°51.53 -999 -999 -999 -999 -999
2008-02-11 10:03:45 51°13.518 2°51.531 -999 -999 -999 -999 -999
2008-02-11 10:03:50 51°13.518 2°51.532 -999 -999 -999 -999 -999
2008-02-11 10:03:55 51°13.518 2°51.533 -999 -999 -999 -999 -999
2008-02-11 10:04:00 51°13.517 2°51.534 -999 -999 -999 -999 -999
2008-02-11 10:04:05 51°13.517 2°51.535 -999 -999 -999 -999 -999
2008-02-11 10:04:10 51°13.516 2°51.536 -999 -999 -999 -999 -999
2008-02-11 10:04:15 51°13.516 2°51.537 -999 -999 -999 -999 -999
2008-02-11 10:04:20 51°13.515 2°51.537 -999 -999 -999 -999 -999
2008-02-11 10:04:25 51°13.515 2°51.538 -999 -999 -999 -999 -999
2008-02-11 10:04:31 51°13.515 2°51.539 -999 -999 -999 -999 -999
2008-02-11 10:04:35 51°13.514 2°51.539 -999 -999 -999 -999 -999
2008-02-11 10:04:40 51°13.514 2°51.539 -999 -999 -999 -999 -999
2008-02-11 10:04:45 51°13.513 2°51.539 -999 -999 -999 -999 -999
2008-02-11 10:04:51 51°13.512 2°51.54 -999 -999 -999 -999 -999
2008-02-11 10:04:55 51°13.512 2°51.54 -999 -999 -999 -999 -999
2008-02-11 10:05:00 51°13.512 2°51.54 -999 -999 -999 -999 -999
2008-02-11 10:05:05 51°13.511 2°51.54 -999 -999 -999 -999 -999
2008-02-11 10:05:10 51°13.51 2°51.54 -999 -999 -999 -999 -999
2008-02-11 10:05:15 51°13.51 2°51.54 -999 -999 -999 -999 -999
2008-02-11 10:05:20 51°13.509 2°51.54 -999 -999 -999 -999 -999
2008-02-11 10:05:25 51°13.508 2°51.54 -999 -999 -999 -999 -999
2008-02-11 10:05:30 51°13.508 2°51.539 -999 -999 -999 -999 -999
2008-02-11 10:05:35 51°13.507 2°51.539 -999 -999 -999 -999 -999
2008-02-11 10:05:40 51°13.506 2°51.539 -999 -999 -999 -999 -999
2008-02-11 10:05:45 51°13.506 2°51.539 -999 -999 -999 -999 -999
2008-02-11 10:05:50 51°13.505 2°51.538 -999 -999 -999 -999 -999
2008-02-11 10:05:55 51°13.504 2°51.538 -999 -999 -999 -999 -999
2008-02-11 10:06:00 51°13.504 2°51.537 -999 -999 -999 -999 -999
2008-02-11 10:06:05 51°13.503 2°51.537 -999 -999 -999 -999 -999
2008-02-11 10:06:10 51°13.503 2°51.536 -999 -999 -999 -999 -999
2008-02-11 10:06:15 51°13.502 2°51.535 -999 -999 -999 -999 -999
2008-02-11 10:06:20 51°13.501 2°51.535 -999 -999 -999 -999 -999
2008-02-11 10:06:25 51°13.501 2°51.534 -999 -999 -999 -999 -999
2008-02-11 10:06:30 51°13.5 2°51.533 -999 -999 -999 -999 -999
2008-02-11 10:06:35 51°13.499 2°51.532 -999 -999 -999 -999 -999
2008-02-11 10:06:40 51°13.499 2°51.531 -999 -999 -999 -999 -999
2008-02-11 10:06:45 51°13.498 2°51.531 -999 -999 -999 -999 -999
2008-02-11 10:06:51 51°13.497 2°51.529 -999 -999 -999 -999 -999
2008-02-11 10:06:55 51°13.497 2°51.529 -999 -999 -999 -999 -999
2008-02-11 10:07:00 51°13.496 2°51.528 -999 -999 -999 -999 -999
2008-02-11 10:07:05 51°13.495 2°51.527 -999 -999 -999 -999 -999
2008-02-11 10:07:10 51°13.495 2°51.525 -999 -999 -999 -999 -999
2008-02-11 10:07:15 51°13.494 2°51.524 -999 -999 -999 -999 -999
2008-02-11 10:07:20 51°13.494 2°51.523 -999 -999 -999 -999 -999
2008-02-11 10:07:25 51°13.493 2°51.522 -999 -999 -999 -999 -999
2008-02-11 10:07:30 51°13.492 2°51.521 -999 -999 -999 -999 -999
2008-02-11 10:07:35 51°13.491 2°51.519 -999 -999 -999 -999 -999
2008-02-11 10:07:40 51°13.491 2°51.518 -999 -999 -999 -999 -999
2008-02-11 10:07:45 51°13.49 2°51.517 -999 -999 -999 -999 -999
2008-02-11 10:07:50 51°13.49 2°51.515 -999 -999 -999 -999 -999
2008-02-11 10:07:55 51°13.489 2°51.514 -999 -999 -999 -999 -999
2008-02-11 10:08:00 51°13.488 2°51.513 -999 -999 -999 -999 -999
2008-02-11 10:08:05 51°13.488 2°51.511 -999 -999 -999 -999 -999
2008-02-11 10:08:10 51°13.487 2°51.51 -999 -999 -999 -999 -999
2008-02-11 10:08:15 51°13.487 2°51.508 -999 -999 -999 -999 -999
2008-02-11 10:08:20 51°13.486 2°51.507 -999 -999 -999 -999 -999
2008-02-11 10:08:25 51°13.485 2°51.505 -999 -999 -999 -999 -999
2008-02-11 10:08:30 51°13.485 2°51.504 -999 -999 -999 -999 -999
2008-02-11 10:08:35 51°13.484 2°51.502 -999 -999 -999 -999 -999
2008-02-11 10:08:40 51°13.483 2°51.5 -999 -999 -999 -999 -999
2008-02-11 10:08:45 51°13.483 2°51.498 -999 -999 -999 -999 -999
2008-02-11 10:08:50 51°13.482 2°51.497 -999 -999 -999 -999 -999
2008-02-11 10:08:55 51°13.482 2°51.495 -999 -999 -999 -999 -999
2008-02-11 10:09:00 51°13.481 2°51.493 -999 -999 -999 -999 -999
2008-02-11 10:09:05 51°13.48 2°51.491 -999 -999 -999 -999 -999
2008-02-11 10:09:11 51°13.48 2°51.489 -999 -999 -999 -999 -999
2008-02-11 10:09:15 51°13.479 2°51.488 -999 -999 -999 -999 -999
2008-02-11 10:09:20 51°13.479 2°51.486 -999 -999 -999 -999 -999
2008-02-11 10:09:25 51°13.478 2°51.484 -999 -999 -999 -999 -999
2008-02-11 10:09:30 51°13.477 2°51.482 -999 -999 -999 -999 -999
2008-02-11 10:09:35 51°13.477 2°51.48 -999 -999 -999 -999 -999
2008-02-11 10:09:40 51°13.476 2°51.479 -999 -999 -999 -999 -999
2008-02-11 10:09:45 51°13.475 2°51.477 -999 -999 -999 -999 -999
2008-02-11 10:09:50 51°13.475 2°51.475 -999 -999 -999 -999 -999
2008-02-11 10:09:55 51°13.474 2°51.473 -999 -999 -999 -999 -999
2008-02-11 10:10:00 51°13.473 2°51.472 -999 -999 -999 -999 -999
2008-02-11 10:10:05 51°13.473 2°51.471 -999 -999 -999 -999 -999
2008-02-11 10:10:10 51°13.473 2°51.471 -999 -999 -999 -999 -999
2008-02-11 10:10:15 51°13.473 2°51.471 -999 -999 -999 -999 -999
2008-02-11 10:10:20 51°13.473 2°51.472 -999 -999 -999 -999 -999
2008-02-11 10:10:25 51°13.473 2°51.473 -999 -999 -999 -999 -999
2008-02-11 10:10:30 51°13.475 2°51.476 -999 -999 -999 -999 -999
2008-02-11 10:10:35 51°13.476 2°51.478 -999 -999 -999 -999 -999
2008-02-11 10:10:40 51°13.478 2°51.482 -999 -999 -999 -999 -999
2008-02-11 10:10:45 51°13.48 2°51.487 -999 -999 -999 -999 -999
2008-02-11 10:10:50 51°13.483 2°51.494 -999 -999 -999 -999 -999
2008-02-11 10:10:55 51°13.486 2°51.502 -999 -999 -999 -999 -999
2008-02-11 10:11:00 51°13.49 2°51.511 -999 -999 -999 -999 -999
2008-02-11 10:11:05 51°13.494 2°51.522 -999 -999 -999 -999 -999
2008-02-11 10:11:10 51°13.498 2°51.534 -999 -999 -999 -999 -999
2008-02-11 10:11:15 51°13.502 2°51.547 -999 -999 -999 -999 -999
2008-02-11 10:11:20 51°13.507 2°51.561 -999 -999 -999 -999 -999
2008-02-11 10:11:25 51°13.512 2°51.576 -999 -999 -999 -999 -999
2008-02-11 10:11:30 51°13.518 2°51.593 -999 -999 -999 -999 -999
2008-02-11 10:11:35 51°13.523 2°51.61 -999 -999 -999 -999 -999
2008-02-11 10:11:40 51°13.53 2°51.627 -999 -999 -999 -999 -999
2008-02-11 10:11:45 51°13.536 2°51.645 -999 -999 -999 -999 -999
2008-02-11 10:11:50 51°13.543 2°51.664 -999 -999 -999 -999 -999
2008-02-11 10:11:55 51°13.55 2°51.683 -999 -999 -999 -999 -999
2008-02-11 10:12:00 51°13.557 2°51.702 -999 -999 -999 -999 -999
2008-02-11 10:12:05 51°13.564 2°51.722 -999 -999 -999 -999 -999
2008-02-11 10:12:10 51°13.571 2°51.742 -999 -999 -999 -999 -999
2008-02-11 10:12:15 51°13.578 2°51.762 -999 -999 -999 -999 -999
2008-02-11 10:12:20 51°13.586 2°51.783 -999 -999 -999 -999 -999
2008-02-11 10:12:25 51°13.593 2°51.803 -999 -999 -999 -999 -999
2008-02-11 10:12:30 51°13.601 2°51.824 -999 -999 -999 -999 -999
2008-02-11 10:12:35 51°13.608 2°51.845 -999 -999 -999 -999 -999
2008-02-11 10:12:40 51°13.616 2°51.866 -999 -999 -999 -999 -999
2008-02-11 10:12:45 51°13.624 2°51.887 -999 -999 -999 -999 -999
2008-02-11 10:12:50 51°13.632 2°51.907 -999 -999 -999 -999 -999
2008-02-11 10:12:55 51°13.64 2°51.928 -999 -999 -999 -999 -999
2008-02-11 10:13:00 51°13.648 2°51.948 -999 -999 -999 -999 -999
2008-02-11 10:13:05 51°13.656 2°51.969 -999 -999 -999 -999 -999
2008-02-11 10:13:10 51°13.664 2°51.989 -999 -999 -999 -999 -999
2008-02-11 10:13:15 51°13.672 2°52.01 -999 -999 -999 -999 -999
2008-02-11 10:13:20 51°13.68 2°52.031 -999 -999 -999 -999 -999
2008-02-11 10:13:25 51°13.687 2°52.052 -999 -999 -999 -999 -999
2008-02-11 10:13:30 51°13.695 2°52.074 -999 -999 -999 -999 -999
2008-02-11 10:13:35 51°13.702 2°52.095 -999 -999 -999 -999 -999
2008-02-11 10:13:40 51°13.709 2°52.117 -999 -999 -999 -999 -999
2008-02-11 10:13:45 51°13.717 2°52.138 -999 -999 -999 -999 -999
2008-02-11 10:13:50 51°13.724 2°52.159 -999 -999 -999 -999 -999
2008-02-11 10:13:55 51°13.731 2°52.181 -999 -999 -999 -999 -999
2008-02-11 10:14:00 51°13.739 2°52.202 -999 -999 -999 -999 -999
2008-02-11 10:14:05 51°13.747 2°52.223 -999 -999 -999 -999 -999
2008-02-11 10:14:10 51°13.755 2°52.244 -999 -999 -999 -999 -999
2008-02-11 10:14:15 51°13.763 2°52.264 -999 -999 -999 -999 -999
2008-02-11 10:14:20 51°13.771 2°52.285 -999 -999 -999 -999 -999
2008-02-11 10:14:25 51°13.78 2°52.306 -999 -999 -999 -999 -999
2008-02-11 10:14:30 51°13.787 2°52.327 -999 -999 -999 -999 -999
2008-02-11 10:14:35 51°13.795 2°52.348 -999 -999 -999 -999 -999
2008-02-11 10:14:40 51°13.803 2°52.369 -999 -999 -999 -999 -999
2008-02-11 10:14:45 51°13.811 2°52.39 -999 -999 -999 -999 -999
2008-02-11 10:14:50 51°13.818 2°52.412 -999 -999 -999 -999 -999
2008-02-11 10:14:55 51°13.826 2°52.433 -999 -999 -999 -999 -999
2008-02-11 10:15:00 51°13.833 2°52.455 -999 -999 -999 -999 -999
2008-02-11 10:15:05 51°13.84 2°52.476 -999 -999 -999 -999 -999
2008-02-11 10:15:10 51°13.848 2°52.498 -999 -999 -999 -999 -999
2008-02-11 10:15:15 51°13.855 2°52.519 -999 -999 -999 -999 -999
2008-02-11 10:15:20 51°13.863 2°52.541 -999 -999 -999 -999 -999
2008-02-11 10:15:25 51°13.87 2°52.563 -999 -999 -999 -999 -999
2008-02-11 10:15:30 51°13.878 2°52.584 -999 -999 -999 -999 -999
2008-02-11 10:15:35 51°13.885 2°52.606 -999 -999 -999 -999 -999
2008-02-11 10:15:40 51°13.893 2°52.627 -999 -999 -999 -999 -999
2008-02-11 10:15:45 51°13.901 2°52.649 -999 -999 -999 -999 -999
2008-02-11 10:15:50 51°13.908 2°52.67 -999 -999 -999 -999 -999
2008-02-11 10:15:55 51°13.916 2°52.692 -999 -999 -999 -999 -999
2008-02-11 10:16:00 51°13.924 2°52.713 -999 -999 -999 -999 -999
2008-02-11 10:16:05 51°13.931 2°52.735 -999 -999 -999 -999 -999
2008-02-11 10:16:10 51°13.938 2°52.756 -999 -999 -999 -999 -999
2008-02-11 10:16:15 51°13.946 2°52.778 -999 -999 -999 -999 -999
2008-02-11 10:16:20 51°13.953 2°52.8 -999 -999 -999 -999 -999
2008-02-11 10:16:25 51°13.961 2°52.821 -999 -999 -999 -999 -999
2008-02-11 10:16:30 51°13.968 2°52.843 -999 -999 -999 -999 -999
2008-02-11 10:16:35 51°13.976 2°52.864 -999 -999 -999 -999 -999
2008-02-11 10:16:40 51°13.983 2°52.885 -999 -999 -999 -999 -999
2008-02-11 10:16:45 51°13.992 2°52.906 -999 -999 -999 -999 -999
2008-02-11 10:16:50 51°14 2°52.927 -999 -999 -999 -999 -999
2008-02-11 10:16:55 51°14.01 2°52.946 -999 -999 -999 -999 -999
2008-02-11 10:17:00 51°14.018 2°52.967 -999 -999 -999 -999 -999
2008-02-11 10:17:05 51°14.028 2°52.986 -999 -999 -999 -999 -999
2008-02-11 10:17:10 51°14.037 2°53.006 -999 -999 -999 -999 -999
2008-02-11 10:17:15 51°14.047 2°53.025 -999 -999 -999 -999 -999
2008-02-11 10:17:20 51°14.056 2°53.045 -999 -999 -999 -999 -999
2008-02-11 10:17:25 51°14.066 2°53.064 -999 -999 -999 -999 -999
2008-02-11 10:17:30 51°14.075 2°53.084 -999 -999 -999 -999 -999
2008-02-11 10:17:35 51°14.084 2°53.104 -999 -999 -999 -999 -999
2008-02-11 10:17:40 51°14.094 2°53.124 -999 -999 -999 -999 -999
2008-02-11 10:17:45 51°14.103 2°53.144 -999 -999 -999 -999 -999
2008-02-11 10:17:50 51°14.113 2°53.164 -999 -999 -999 -999 -999
2008-02-11 10:17:55 51°14.122 2°53.184 -999 -999 -999 -999 -999
2008-02-11 10:18:00 51°14.132 2°53.204 -999 -999 -999 -999 -999
2008-02-11 10:18:05 51°14.141 2°53.223 -999 -999 -999 -999 -999
2008-02-11 10:18:10 51°14.15 2°53.243 -999 -999 -999 -999 -999
2008-02-11 10:18:15 51°14.16 2°53.263 -999 -999 -999 -999 -999
2008-02-11 10:18:20 51°14.169 2°53.284 -999 -999 -999 -999 -999
2008-02-11 10:18:25 51°14.178 2°53.304 -999 -999 -999 -999 -999
2008-02-11 10:18:30 51°14.187 2°53.325 -999 -999 -999 -999 -999
2008-02-11 10:18:35 51°14.196 2°53.346 -999 -999 -999 -999 -999
2008-02-11 10:18:40 51°14.204 2°53.367 -999 -999 -999 -999 -999
2008-02-11 10:18:45 51°14.213 2°53.388 -999 -999 -999 -999 -999
2008-02-11 10:18:50 51°14.222 2°53.409 -999 -999 -999 -999 -999
2008-02-11 10:18:55 51°14.231 2°53.429 -999 -999 -999 -999 -999
2008-02-11 10:19:00 51°14.239 2°53.45 -999 -999 -999 -999 -999
2008-02-11 10:19:05 51°14.248 2°53.471 -999 -999 -999 -999 -999
2008-02-11 10:19:10 51°14.257 2°53.492 -999 -999 -999 -999 -999
2008-02-11 10:19:15 51°14.266 2°53.512 -999 -999 -999 -999 -999
2008-02-11 10:19:20 51°14.275 2°53.533 -999 -999 -999 -999 -999
2008-02-11 10:19:25 51°14.284 2°53.554 -999 -999 -999 -999 -999
2008-02-11 10:19:30 51°14.293 2°53.575 -999 -999 -999 -999 -999
2008-02-11 10:19:35 51°14.302 2°53.595 -999 -999 -999 -999 -999
2008-02-11 10:19:40 51°14.311 2°53.616 -999 -999 -999 -999 -999
2008-02-11 10:19:45 51°14.321 2°53.635 -999 -999 -999 -999 -999
2008-02-11 10:19:50 51°14.332 2°53.653 -999 -999 -999 -999 -999
2008-02-11 10:19:55 51°14.343 2°53.671 -999 -999 -999 -999 -999
2008-02-11 10:20:00 51°14.354 2°53.69 -999 -999 -999 -999 -999
2008-02-11 10:20:05 51°14.364 2°53.708 -999 -999 -999 -999 -999
2008-02-11 10:20:10 51°14.375 2°53.727 -999 -999 -999 -999 -999
2008-02-11 10:20:15 51°14.386 2°53.743 -999 -999 -999 -999 -999
2008-02-11 10:20:20 51°14.398 2°53.761 -999 -999 -999 -999 -999
2008-02-11 10:20:25 51°14.41 2°53.777 -999 -999 -999 -999 -999
2008-02-11 10:20:30 51°14.422 2°53.793 -999 -999 -999 -999 -999
2008-02-11 10:20:35 51°14.436 2°53.807 -999 -999 -999 -999 -999
2008-02-11 10:20:40 51°14.449 2°53.82 -999 -999 -999 -999 -999
2008-02-11 10:20:45 51°14.463 2°53.832 -999 -999 -999 -999 -999
2008-02-11 10:20:50 51°14.477 2°53.843 -999 -999 -999 -999 -999
2008-02-11 10:20:55 51°14.492 2°53.855 -999 -999 -999 -999 -999
2008-02-11 10:21:00 51°14.506 2°53.866 -999 -999 -999 -999 -999
2008-02-11 10:21:05 51°14.521 2°53.876 -999 -999 -999 -999 -999
2008-02-11 10:21:10 51°14.535 2°53.886 -999 -999 -999 -999 -999
2008-02-11 10:21:15 51°14.551 2°53.893 -999 -999 -999 -999 -999
2008-02-11 10:21:20 51°14.567 2°53.9 -999 -999 -999 -999 -999
2008-02-11 10:21:25 51°14.582 2°53.907 -999 -999 -999 -999 -999
2008-02-11 10:21:30 51°14.598 2°53.913 -999 -999 -999 -999 -999
2008-02-11 10:21:35 51°14.614 2°53.919 -999 -999 -999 -999 -999
2008-02-11 10:21:40 51°14.63 2°53.925 -999 -999 -999 -999 -999
2008-02-11 10:21:45 51°14.646 2°53.931 -999 -999 -999 -999 -999
2008-02-11 10:21:50 51°14.662 2°53.937 -999 -999 -999 -999 -999
2008-02-11 10:21:55 51°14.678 2°53.944 -999 -999 -999 -999 -999
2008-02-11 10:22:00 51°14.694 2°53.95 -999 -999 -999 -999 -999
2008-02-11 10:22:05 51°14.71 2°53.956 -999 -999 -999 -999 -999
2008-02-11 10:22:10 51°14.727 2°53.961 -999 -999 -999 -999 -999
2008-02-11 10:22:15 51°14.743 2°53.966 -999 -999 -999 -999 -999
2008-02-11 10:22:20 51°14.759 2°53.971 -999 -999 -999 -999 -999
2008-02-11 10:22:25 51°14.775 2°53.976 -999 -999 -999 -999 -999
2008-02-11 10:22:30 51°14.791 2°53.981 -999 -999 -999 -999 -999
2008-02-11 10:22:35 51°14.806 2°53.987 -999 -999 -999 -999 -999
2008-02-11 10:22:40 51°14.822 2°53.991 -999 -999 -999 -999 -999
2008-02-11 10:22:45 51°14.838 2°53.997 -999 -999 -999 -999 -999
2008-02-11 10:22:50 51°14.853 2°54.003 -999 -999 -999 -999 -999
2008-02-11 10:22:55 51°14.869 2°54.009 -999 -999 -999 -999 -999
2008-02-11 10:23:00 51°14.885 2°54.016 -999 -999 -999 -999 -999
2008-02-11 10:23:05 51°14.9 2°54.022 -999 -999 -999 -999 -999
2008-02-11 10:23:10 51°14.916 2°54.029 -999 -999 -999 -999 -999
2008-02-11 10:23:15 51°14.932 2°54.035 -999 -999 -999 -999 -999
2008-02-11 10:23:20 51°14.948 2°54.038 -999 -999 -999 -999 -999
2008-02-11 10:23:25 51°14.964 2°54.042 -999 -999 -999 -999 -999
2008-02-11 10:23:30 51°14.98 2°54.044 -999 -999 -999 -999 -999
2008-02-11 10:23:35 51°14.996 2°54.047 -999 -999 -999 -999 -999
2008-02-11 10:23:40 51°15.012 2°54.049 -999 -999 -999 -999 -999
2008-02-11 10:23:45 51°15.028 2°54.051 -999 -999 -999 -999 -999
2008-02-11 10:23:50 51°15.044 2°54.053 -999 -999 -999 -999 -999
2008-02-11 10:23:55 51°15.06 2°54.055 -999 -999 -999 -999 -999
2008-02-11 10:24:00 51°15.075 2°54.057 -999 -999 -999 -999 -999
2008-02-11 10:24:05 51°15.092 2°54.059 -999 -999 -999 -999 -999
2008-02-11 10:24:10 51°15.108 2°54.061 -999 -999 -999 -999 -999
2008-02-11 10:24:15 51°15.123 2°54.064 -999 -999 -999 -999 -999
2008-02-11 10:24:20 51°15.139 2°54.066 -999 -999 -999 -999 -999
2008-02-11 10:24:25 51°15.156 2°54.068 -999 -999 -999 -999 -999
2008-02-11 10:24:30 51°15.172 2°54.071 -999 -999 -999 -999 -999
2008-02-11 10:24:35 51°15.188 2°54.073 -999 -999 -999 -999 -999
2008-02-11 10:24:40 51°15.203 2°54.075 -999 -999 -999 -999 -999
2008-02-11 10:24:45 51°15.219 2°54.077 -999 -999 -999 -999 -999
2008-02-11 10:24:50 51°15.235 2°54.08 -999 -999 -999 -999 -999
2008-02-11 10:24:55 51°15.252 2°54.082 -999 -999 -999 -999 -999
2008-02-11 10:25:00 51°15.268 2°54.084 -999 -999 -999 -999 -999
2008-02-11 10:25:05 51°15.284 2°54.087 -999 -999 -999 -999 -999
2008-02-11 10:25:10 51°15.3 2°54.09 -999 -999 -999 -999 -999
2008-02-11 10:25:15 51°15.316 2°54.093 -999 -999 -999 -999 -999
2008-02-11 10:25:20 51°15.332 2°54.098 -999 -999 -999 -999 -999
2008-02-11 10:25:25 51°15.348 2°54.101 -999 -999 -999 -999 -999
2008-02-11 10:25:30 51°15.363 2°54.107 -999 -999 -999 -999 -999
2008-02-11 10:25:35 51°15.379 2°54.112 -999 -999 -999 -999 -999
2008-02-11 10:25:40 51°15.394 2°54.118 -999 -999 -999 -999 -999
2008-02-11 10:25:45 51°15.41 2°54.125 -999 -999 -999 -999 -999
2008-02-11 10:25:50 51°15.425 2°54.132 -999 -999 -999 -999 -999
2008-02-11 10:25:55 51°15.44 2°54.14 -999 -999 -999 -999 -999
2008-02-11 10:26:00 51°15.455 2°54.149 -999 -999 -999 -999 -999
2008-02-11 10:26:05 51°15.471 2°54.157 -999 -999 -999 -999 -999
2008-02-11 10:26:10 51°15.486 2°54.166 -999 -999 -999 -999 -999
2008-02-11 10:26:15 51°15.501 2°54.174 -999 -999 -999 -999 -999
2008-02-11 10:26:20 51°15.516 2°54.183 -999 -999 -999 -999 -999
2008-02-11 10:26:25 51°15.531 2°54.192 -999 -999 -999 -999 -999
2008-02-11 10:26:30 51°15.545 2°54.201 -999 -999 -999 -999 -999
2008-02-11 10:26:35 51°15.56 2°54.21 -999 -999 -999 -999 -999
2008-02-11 10:26:40 51°15.575 2°54.22 -999 -999 -999 -999 -999
2008-02-11 10:26:45 51°15.59 2°54.229 -999 -999 -999 -999 -999
2008-02-11 10:26:50 51°15.605 2°54.238 -999 -999 -999 -999 -999
2008-02-11 10:26:55 51°15.62 2°54.247 -999 -999 -999 -999 -999
2008-02-11 10:27:00 51°15.635 2°54.256 -999 -999 -999 -999 -999
2008-02-11 10:27:05 51°15.649 2°54.265 -999 -999 -999 -999 -999
2008-02-11 10:27:10 51°15.664 2°54.274 -999 -999 -999 -999 -999
2008-02-11 10:27:15 51°15.679 2°54.283 -999 -999 -999 -999 -999
2008-02-11 10:27:20 51°15.694 2°54.292 -999 -999 -999 -999 -999
2008-02-11 10:27:25 51°15.709 2°54.301 -999 -999 -999 -999 -999
2008-02-11 10:27:30 51°15.724 2°54.311 -999 -999 -999 -999 -999
2008-02-11 10:27:35 51°15.738 2°54.32 -999 -999 -999 -999 -999
2008-02-11 10:27:40 51°15.753 2°54.329 -999 -999 -999 -999 -999
2008-02-11 10:27:45 51°15.768 2°54.338 -999 -999 -999 -999 -999
2008-02-11 10:27:50 51°15.782 2°54.348 -999 -999 -999 -999 -999
2008-02-11 10:27:55 51°15.797 2°54.358 -999 -999 -999 -999 -999
2008-02-11 10:28:00 51°15.812 2°54.368 -999 -999 -999 -999 -999
2008-02-11 10:28:05 51°15.826 2°54.379 -999 -999 -999 -999 -999
2008-02-11 10:28:10 51°15.84 2°54.39 -999 -999 -999 -999 -999
2008-02-11 10:28:15 51°15.855 2°54.4 -999 -999 -999 -999 -999
2008-02-11 10:28:20 51°15.869 2°54.411 -999 -999 -999 -999 -999
2008-02-11 10:28:25 51°15.883 2°54.421 -999 -999 -999 -999 -999
2008-02-11 10:28:30 51°15.898 2°54.431 -999 -999 -999 -999 -999
2008-02-11 10:28:35 51°15.912 2°54.442 -999 -999 -999 -999 -999
2008-02-11 10:28:40 51°15.927 2°54.452 -999 -999 -999 -999 -999
2008-02-11 10:28:45 51°15.942 2°54.463 -999 -999 -999 -999 -999
2008-02-11 10:28:50 51°15.956 2°54.473 -999 -999 -999 -999 -999
2008-02-11 10:28:55 51°15.97 2°54.484 -999 -999 -999 -999 -999
2008-02-11 10:29:00 51°15.984 2°54.496 -999 -999 -999 -999 -999
2008-02-11 10:29:05 51°15.998 2°54.51 -999 -999 -999 -999 -999
2008-02-11 10:29:10 51°16.011 2°54.523 -999 -999 -999 -999 -999
2008-02-11 10:29:15 51°16.024 2°54.539 -999 -999 -999 -999 -999
2008-02-11 10:29:20 51°16.036 2°54.554 -999 -999 -999 -999 -999
2008-02-11 10:29:25 51°16.048 2°54.572 -999 -999 -999 -999 -999
2008-02-11 10:29:30 51°16.06 2°54.588 -999 -999 -999 -999 -999
2008-02-11 10:29:35 51°16.071 2°54.606 -999 -999 -999 -999 -999
2008-02-11 10:29:40 51°16.082 2°54.624 -999 -999 -999 -999 -999
2008-02-11 10:29:45 51°16.092 2°54.642 -999 -999 -999 -999 -999
2008-02-11 10:29:50 51°16.102 2°54.662 -999 -999 -999 -999 -999
2008-02-11 10:29:55 51°16.113 2°54.681 -999 -999 -999 -999 -999
2008-02-11 10:30:00 51°16.123 2°54.701 -999 -999 -999 -999 -999
2008-02-11 10:30:05 51°16.133 2°54.72 -999 -999 -999 -999 -999
2008-02-11 10:30:10 51°16.143 2°54.74 -999 -999 -999 -999 -999
2008-02-11 10:30:15 51°16.153 2°54.759 -999 -999 -999 -999 -999
2008-02-11 10:30:20 51°16.162 2°54.779 -999 -999 -999 -999 -999
2008-02-11 10:30:25 51°16.172 2°54.799 -999 -999 -999 -999 -999
2008-02-11 10:30:30 51°16.182 2°54.818 -999 -999 -999 -999 -999
2008-02-11 10:30:35 51°16.192 2°54.838 -999 -999 -999 -999 -999
2008-02-11 10:30:40 51°16.202 2°54.857 -999 -999 -999 -999 -999
2008-02-11 10:30:45 51°16.212 2°54.876 -999 -999 -999 -999 -999
2008-02-11 10:30:50 51°16.223 2°54.895 -999 -999 -999 -999 -999
2008-02-11 10:30:55 51°16.233 2°54.914 -999 -999 -999 -999 -999
2008-02-11 10:31:00 51°16.244 2°54.933 -999 -999 -999 -999 -999
2008-02-11 10:31:05 51°16.254 2°54.951 -999 -999 -999 -999 -999
2008-02-11 10:31:10 51°16.265 2°54.97 -999 -999 -999 -999 -999
2008-02-11 10:31:15 51°16.274 2°54.988 -999 -999 -999 -999 -999
2008-02-11 10:31:20 51°16.284 2°55.005 -999 -999 -999 -999 -999
2008-02-11 10:31:25 51°16.292 2°55.021 -999 -999 -999 -999 -999
2008-02-11 10:31:30 51°16.299 2°55.035 -999 -999 -999 -999 -999
2008-02-11 10:31:35 51°16.306 2°55.049 -999 -999 -999 -999 -999
2008-02-11 10:31:40 51°16.312 2°55.062 -999 -999 -999 -999 -999
2008-02-11 10:31:45 51°16.317 2°55.074 -999 -999 -999 -999 -999
2008-02-11 10:31:50 51°16.322 2°55.085 -999 -999 -999 -999 -999
2008-02-11 10:31:55 51°16.326 2°55.095 -999 -999 -999 -999 -999
2008-02-11 10:32:00 51°16.33 2°55.105 -999 -999 -999 -999 -999
2008-02-11 10:32:05 51°16.333 2°55.115 -999 -999 -999 -999 -999
2008-02-11 10:32:10 51°16.335 2°55.123 -999 -999 -999 -999 -999
2008-02-11 10:32:15 51°16.338 2°55.131 -999 -999 -999 -999 -999
2008-02-11 10:32:20 51°16.34 2°55.137 -999 -999 -999 -999 -999
2008-02-11 10:32:25 51°16.342 2°55.142 -999 -999 -999 -999 -999
2008-02-11 10:32:30 51°16.344 2°55.146 -999 -999 -999 -999 -999
2008-02-11 10:32:35 51°16.346 2°55.149 -999 -999 -999 -999 -999
2008-02-11 10:32:40 51°16.348 2°55.151 -999 -999 -999 -999 -999
2008-02-11 10:32:45 51°16.35 2°55.153 -999 -999 -999 -999 -999
2008-02-11 10:32:50 51°16.353 2°55.155 -999 -999 -999 -999 -999
2008-02-11 10:32:55 51°16.355 2°55.156 -999 -999 -999 -999 -999
2008-02-11 10:33:00 51°16.356 2°55.157 -999 -999 -999 -999 -999
2008-02-11 10:33:05 51°16.358 2°55.158 -999 -999 -999 -999 -999
2008-02-11 10:33:10 51°16.36 2°55.159 -999 -999 -999 -999 -999
2008-02-11 10:33:15 51°16.362 2°55.16 -999 -999 -999 -999 -999
2008-02-11 10:33:20 51°16.364 2°55.16 -999 -999 -999 -999 -999
2008-02-11 10:33:25 51°16.365 2°55.16 -999 -999 -999 -999 -999
2008-02-11 10:33:30 51°16.367 2°55.161 -999 -999 -999 -999 -999
2008-02-11 10:33:35 51°16.368 2°55.161 -999 -999 -999 -999 -999
2008-02-11 10:33:41 51°16.37 2°55.161 -999 -999 -999 -999 -999
2008-02-11 10:33:45 51°16.371 2°55.161 -999 -999 -999 -999 -999
2008-02-11 10:33:50 51°16.372 2°55.161 -999 -999 -999 -999 -999
2008-02-11 10:33:55 51°16.374 2°55.161 -999 -999 -999 -999 -999
2008-02-11 10:34:01 51°16.375 2°55.161 -999 -999 -999 -999 -999
2008-02-11 10:34:05 51°16.376 2°55.161 -999 -999 -999 -999 -999
2008-02-11 10:34:10 51°16.377 2°55.161 -999 -999 -999 -999 -999
2008-02-11 10:34:15 51°16.378 2°55.161 -999 -999 -999 -999 -999
2008-02-11 10:34:21 51°16.379 2°55.16 -999 -999 -999 -999 -999
2008-02-11 10:34:25 51°16.38 2°55.16 -999 -999 -999 -999 -999
2008-02-11 10:34:30 51°16.381 2°55.16 -999 -999 -999 -999 -999
2008-02-11 10:34:35 51°16.382 2°55.16 -999 -999 -999 -999 -999
2008-02-11 10:34:41 51°16.383 2°55.16 -999 -999 -999 -999 -999
2008-02-11 10:34:45 51°16.384 2°55.159 -999 -999 -999 -999 -999
2008-02-11 10:34:50 51°16.384 2°55.159 -999 -999 -999 -999 -999
2008-02-11 10:34:55 51°16.385 2°55.159 -999 -999 -999 -999 -999
2008-02-11 10:35:01 51°16.386 2°55.158 -999 -999 -999 -999 -999
2008-02-11 10:35:05 51°16.387 2°55.158 -999 -999 -999 -999 -999
2008-02-11 10:35:10 51°16.387 2°55.158 -999 -999 -999 -999 -999
2008-02-11 10:35:15 51°16.388 2°55.158 -999 -999 -999 -999 -999
2008-02-11 10:35:21 51°16.389 2°55.157 -999 -999 -999 -999 -999
2008-02-11 10:35:25 51°16.389 2°55.157 -999 -999 -999 -999 -999
2008-02-11 10:35:30 51°16.389 2°55.157 -999 -999 -999 -999 -999
2008-02-11 10:35:35 51°16.39 2°55.156 -999 -999 -999 -999 -999
2008-02-11 10:35:40 51°16.39 2°55.156 -999 -999 -999 -999 -999
2008-02-11 10:35:45 51°16.391 2°55.156 -999 -999 -999 -999 -999
2008-02-11 10:35:50 51°16.392 2°55.155 -999 -999 -999 -999 -999
2008-02-11 10:35:55 51°16.392 2°55.155 -999 -999 -999 -999 -999
2008-02-11 10:36:01 51°16.392 2°55.155 -999 -999 -999 -999 -999
2008-02-11 10:36:05 51°16.392 2°55.154 -999 -999 -999 -999 -999
2008-02-11 10:36:10 51°16.392 2°55.154 -999 -999 -999 -999 -999
2008-02-11 10:36:15 51°16.392 2°55.153 -999 -999 -999 -999 -999
2008-02-11 10:36:21 51°16.392 2°55.153 -999 -999 -999 -999 -999
2008-02-11 10:36:25 51°16.393 2°55.152 -999 -999 -999 -999 -999
2008-02-11 10:36:30 51°16.393 2°55.152 -999 -999 -999 -999 -999
2008-02-11 10:36:35 51°16.393 2°55.152 -999 -999 -999 -999 -999
2008-02-11 10:36:41 51°16.393 2°55.151 -999 -999 -999 -999 -999
2008-02-11 10:36:45 51°16.393 2°55.151 -999 -999 -999 -999 -999
2008-02-11 10:36:51 51°16.393 2°55.15 -999 -999 -999 -999 -999
2008-02-11 10:36:55 51°16.393 2°55.15 -999 -999 -999 -999 -999
2008-02-11 10:37:01 51°16.393 2°55.149 -999 -999 -999 -999 -999
2008-02-11 10:37:05 51°16.393 2°55.149 -999 -999 -999 -999 -999